Location: Salillas
(41.9950°N, 0.2228°W)
Time: 20:54:39
(UTC+00:00)

Cosmos 1470 - Pass Details

Date: 29 March 2020
Orbit: 521 x 543 km, 82.5° (Epoch: 31 May)

Event Time Altitude Azimuth Distance (km) Brightness Sun altitude
Rises 19:35:26 0° 176° (S) 2,634 6.1 -13.9°
Reaches altitude 10° 19:37:35 10° 172° (S) 1,752 5.1 -14.2°
Maximum altitude 19:41:20 55° 95° (E) 634 2.7 -14.9°
Drops below altitude 10° 19:45:09 10° 17° (NNE) 1,776 5.5 -15.6°
Sets 19:47:20 0° 13° (NNE) 2,674 6.4 -15.9°
